Regional Weather Roundup
Issued by NWS

Home | Current Version | Previous Version | Text Only | Print | Product List | Glossary Off
Versions: 1 2 3 4 5 6 7 8 9 10 11 12 13 14 15 16 17 18 19 20 21 22 23 24 25 26 27 28 29 30 31 32 33 34 35 36 37 38 39 40 41 42 43 44 45 46 47 48 49 50

000
ASUS45 KCYS 151110
RWRWY

WYOMING REGIONAL WEATHER ROUNDUP
NATIONAL WEATHER SERVICE CHEYENNE WY
500 AM MDT MON SEP 15 2014

NOTE:  "FAIR" INDICATES FEW OR NO CLOUDS BELOW 12,000 FEET
WITH NO SIGNIFICANT WEATHER AND/OR OBSTRUCTIONS TO VISIBILITY.

WYZ001-151200-
YELLOWSTONE NATIONAL PARK

CITY           SKY/WX    TMP DP  RH WIND       PRES   REMARKS
LK YELLOWSTONE   N/A     29  26  89 CALM      30.34S
W YELLOWSTONE  NOT AVBL

$$
WYZ002>013-054>058-071-098>099-151200-
NORTHERN WYOMING

CITY           SKY/WX    TMP DP  RH WIND       PRES   REMARKS
JACKSON        PTCLDY    36  28  75 CALM      30.27S
CODY           CLEAR     45  37  76 SW6       30.25S
GREYBULL       CLEAR     42  39  89 E5        30.23S
WORLAND        CLEAR     40  37  89 CALM      30.24R
SHERIDAN       CLEAR     35  32  88 S5        30.23S WCI  31
BUFFALO        CLEAR     43  34  70 SW3       30.26F
GILLETTE       CLEAR     37  34  89 SW5       30.25F WCI  33
HULETT         FAIR      37  36  93 MISG      30.26
NEWCASTLE      FAIR      36  36 100 N6        30.28  WCI  31

$$
WYZ014>020-022>026-101>103-151200-
CENTRAL WYOMING

CITY           SKY/WX    TMP DP  RH WIND       PRES   REMARKS
BIG PINEY      PTCLDY    34  23  64 E5        30.32R WCI  30
PINEDALE       MOSUNNY   32  25  74 NW3       30.32R
DUBOIS         FAIR      36  27  69 NW8       30.34F WCI  29
LANDER         CLEAR     44  34  67 CALM      30.28R
RIVERTON       CLEAR     42  34  73 N7        30.28S
CASPER         CLEAR     34  32  92 W3        30.29S
DOUGLAS        CLEAR     38  36  92 CALM      30.30R

$$
WYZ021-027>030-104>119-151200-
SOUTHERN WYOMING

CITY           SKY/WX    TMP DP  RH WIND       PRES   REMARKS
EVANSTON       CLOUDY    50  35  56 NE5       30.28R
KEMMERER       PTSUNNY   46  32  57 N8        30.30S
FORT BRIDGER   FAIR      50  33  53 S5        30.30S
ROCK SPRINGS   PTCLDY    45  32  60 NE9       30.30R
DIXON          FAIR      39  35  84 CALM      30.32R
RAWLINS        CLEAR     45  40  82 NE6       30.32R
SARATOGA       FAIR      37  34  87 SE3       30.33R
LARAMIE        CLEAR     40  37  89 CALM      30.34R
CHEYENNE       PTCLDY    45  41  86 NW9       30.30R
TORRINGTON     CLEAR     38  36  92 CALM      30.28R
PINE BLUFFS    FAIR      36  34  93 N6        30.30R WCI  31

$$


USA.gov is the U.S. government's official web portal to all federal, state and local government web resources and services.